1999 VT   

Epoch 1999 Oct. 29.0 TT = JDT 2451480.5                 Nakano

M  18.83559              (2000.0)            P               Q

n   0.34643819     Peri.  297.14707     +0.89354044     +0.42160274

a   2.0077927      Node    38.47687     -0.27084740     +0.78040846

e   0.4873687      Incl.   14.36735     -0.35808820     +0.46175076

P   2.84           H   19.7           G   0.15           U   *

Residuals in seconds of arc 

991101 703  0.4+  0.7+    991103 853  0.4-  0.1-    991106 649  1.2+  0.3+  

991101 703  0.1-  0.2+    991103 557  0.2-  0.5-    991106 649  0.1-  0.3-  

991101 703  0.1-  0.1+    991103 557  0.0   0.2+    991107 711  0.6+  0.5-  

991101 703  0.1+  0.1-    991103 557  0.0   0.2+    991107 711  0.8+  0.2+  

991101 557  0.3-  0.5-    991104 853  0.3-  0.2-    991107 711  0.4+  0.3+  

991101 557  0.1+  0.3-    991104 853  0.4-  0.2+    991107 402  0.9+  0.6+  

991101 046  0.6-  0.9+    991104 853  0.5-  0.3+    991107 402  0.2-  0.1-  

991101 046  0.2-  0.2-    991104 413  0.2+  0.3-    991107 402  0.7+  1.1-  

991101 557  0.2-  0.4-    991104 413  0.3-  0.2+    991107 402  0.6+  1.0-  

991101 046  0.6-  0.1-    991104 413  0.1+  0.1+    991108 704  1.6-  0.1+  

991101 557  0.0   0.4-    991105 704  0.1-  0.1+    991108 711  0.0   0.5+  

991101 046  0.3+  0.3-    991105 704  0.6-  0.2-    991108 711  1.2-  0.2-  

991101 470  0.3+  1.3+    991105 704  0.3-  0.4+    991108 704  1.1-  0.2-  

991101 470  0.7+  1.5+    991105 704  0.5+  0.2-    991108 853  0.0   0.0   

991102 681  0.5+  0.4+    991105 704  1.9+  1.0-    991108 711  0.8-  0.2-  

991102 681  0.4+  0.8+    991105 411  1.3-  0.8+    991108 853  0.2-  0.3+  

991102 853  0.1+  0.3-    991105 411  0.2-  0.6+    991108 853  0.1-  0.1+  

991102 853  0.2-  0.5-    991106 704  0.7+  0.5+    991108 704  0.2-  0.1+  

991102 681  0.2-  0.0     991106 704  0.0   0.4+    991108 704  0.9-  1.0-  

991102 681  0.4+  0.3+    991106 704  0.2+  0.2+    991108 704  1.2-  0.3-  

991102 413  0.2-  1.1-    991106 711  0.1-  0.0     991108 595  0.3-  0.2+  

991102 413  0.3+  1.0-    991106 711  0.1+  0.4+    991108 595  0.5+  0.7+  

991102 046  0.3+  0.4+    991106 711  0.3+  0.1+    991109 595  0.6+  0.7+  

991102 046  0.5+  1.1-    991106 704  0.1+  0.2+    991110 402  0.1+  0.1-  

991102 046  0.3-  0.8-    991106 853  0.1-  0.3+    991110 402  1.0+  0.5-  

991102 046  0.4+  1.0-    991106 853  0.1-  0.1+    991110 402  0.6+  0.3-  

991103 853  0.6-  0.2-    991106 704  0.2+  0.4+                            

991103 853  0.8-  0.1-    991106 649 (2.4-  0.6-)                           

 

NAKANO

         **** Don't distribute anyone except personal use only ****

                (C) Copyright 1999 OAA/ComputingSection

write mail from CFAD0::NAKANO on 1999-11-11 20:56:14(JST).





–ß‚è‚Ü‚·B